[[{"header":{"parameterUnit":"m.s-1","parameterCategory":1,"la1":30.2991,"la2":30.254,"lo1":-89.0895,"lo2":-89.0444,"dy":0.0017,"dx":0.0017,"nx":28,"ny":28,"refTime":"2024-07-28T09:00:00:Z","depth":0,"parameterNumber":2,"parameterNumberName":"U-component_of_WINDS"},"data":[0,0,0,0,0,0,0,0,0,0,0,0,0,0,0,0,0,0,0,0,0,0,0,0,0,0,0,0,0,0,0,0,0,0,0,0,0,0,0,0,0,0,0,0,0,0,0,0,0,0,0,0,0,0,0,0,0,0,-0.4891,-0.489,0,-0.4782,-0.4781,-0.4779,-0.4688,-0.4687,-0.4686,-0.4685,-0.4572,-0.457,-0.4567,0,0,0,0,0,0,0,0,0,0,0,0,0,-0.5021,-0.5019,-0.4892,-0.489,-0.4889,-0.4782,-0.4781,-0.4779,-0.4688,-0.4687,-0.4686,-0.4685,-0.4572,-0.457,-0.4567,0,0,0,0,0,0,0,0,0,0,0,0,0,-0.4944,-0.5018,-0.4892,-0.4831,-0.4824,-0.4782,-0.4781,-0.4779,-0.4689,-0.4687,-0.4686,-0.4684,-0.4573,-0.457,-0.4567,-0.4576,0,0,-0.4557,-0.4556,0,0,0,0,0,0,0,0,-0.4948,-0.4939,-0.4841,-0.4835,-0.4827,-0.4747,-0.4784,-0.4711,-0.4689,-0.474,-0.4685,-0.4684,-0.4631,-0.4623,-0.4606,-0.4571,-0.4566,-0.4557,-0.4555,-0.4554,-0.4553,0,0,0,0,0,0,0,-0.4953,-0.4943,-0.4848,-0.484,-0.4831,-0.4808,-0.4796,-0.477,-0.4695,-0.4736,-0.4729,-0.4717,-0.4627,-0.4609,-0.4602,-0.4565,-0.4557,-0.4554,-0.4552,-0.4551,-0.4532,-0.4533,0,0,0,0,0,0,-0.4968,-0.4948,-0.4852,-0.4845,-0.4885,-0.4807,-0.4793,-0.4774,-0.4695,-0.4682,-0.4718,-0.4713,-0.4615,-0.4606,-0.4598,-0.4603,-0.4554,-0.4551,-0.4549,-0.4531,-0.4532,-0.4534,0,0,0,0,0,0,-0.4972,-0.4961,-0.4856,-0.4895,-0.4879,-0.4807,-0.4786,-0.4773,-0.4755,-0.4682,-0.4668,-0.4714,-0.4614,-0.4602,-0.4582,-0.4598,-0.4549,-0.4546,-0.4529,-0.4531,-0.4533,-0.4615,0,0,0,0,0,0,-0.4976,-0.4962,-0.4966,-0.4895,-0.4878,-0.4843,-0.4787,-0.4772,-0.475,-0.4742,-0.4674,-0.4661,-0.4612,-0.4588,-0.4579,-0.4593,-0.4544,-0.4527,-0.453,-0.4532,-0.461,-0.462,-0.4627,0,0,0,0,0,-0.4981,-0.4993,-0.4966,-0.4955,-0.488,-0.4844,-0.4834,-0.4777,-0.4751,-0.4754,-0.4707,-0.4664,-0.4598,-0.4587,-0.4576,-0.4589,-0.4526,-0.4529,-0.4532,-0.4607,-0.4618,-0.4627,0,0,0,0,0,0,-0.5066,-0.4982,-0.4952,-0.4942,-0.4901,-0.4829,-0.483,-0.479,-0.4755,-0.4749,-0.468,-0.4665,-0.4653,-0.4619,-0.4607,-0.4594,-0.4556,-0.4558,-0.4616,-0.4626,-0.4635,-0.4643,-0.4541,0,0,0,0,0,-0.5084,-0.5062,-0.499,-0.4988,-0.4969,-0.4903,-0.4885,-0.4845,-0.4799,-0.4781,-0.4733,-0.4691,-0.466,-0.4641,-0.461,-0.4606,-0.4589,-0.4609,-0.4618,-0.4625,-0.4627,-0.4622,-0.463,-0.4544,-0.4544,-0.4544,0,0,-0.512,-0.5072,-0.5062,-0.5004,-0.4967,-0.4945,-0.4889,-0.4869,-0.4852,-0.4778,-0.4756,-0.472,-0.4667,-0.4655,-0.4648,-0.4627,-0.4647,-0.4629,-0.4636,-0.4633,-0.4626,-0.4634,-0.4641,-0.4546,-0.4546,-0.4546,0,0,-0.5175,-0.5136,-0.513,-0.5095,-0.504,-0.4997,-0.4996,-0.493,-0.4903,-0.488,-0.4824,-0.4803,-0.4752,-0.4717,-0.4693,-0.4735,-0.4694,-0.4727,-0.4771,-0.4767,-0.4773,-0.4779,-0.4793,-0.4799,-0.4729,-0.4729,-0.4729,0,-0.5226,-0.5192,-0.5132,-0.5114,-0.509,-0.5024,-0.5017,-0.4985,-0.4923,-0.4908,-0.4886,-0.4821,-0.4781,-0.476,-0.477,-0.4753,-0.4749,-0.4734,-0.4777,-0.4782,-0.4787,-0.48,-0.4805,-0.4733,-0.4733,-0.4732,-0.4732,0,-0.5258,-0.5235,-0.5236,-0.5178,-0.5155,-0.5143,-0.5081,-0.5064,-0.5026,-0.4985,-0.4962,-0.4912,-0.4869,-0.4861,-0.4824,-0.4835,-0.4823,-0.479,-0.4751,-0.48,-0.4811,-0.4816,-0.474,-0.4738,-0.4737,-0.4736,0,0,-0.5362,-0.5272,-0.5273,-0.5246,-0.5182,-0.5163,-0.5148,-0.5106,-0.5093,-0.5052,-0.5038,-0.4997,-0.4966,-0.4938,-0.4897,-0.4893,-0.493,-0.486,-0.4858,-0.4874,-0.4938,-0.4962,-0.4969,-0.4902,-0.4903,-0.4904,-0.4942,0,-0.5406,-0.5375,-0.5321,-0.5308,-0.5286,-0.5222,-0.5209,-0.5168,-0.513,-0.5105,-0.5062,-0.5034,-0.4996,-0.4979,-0.4973,-0.4927,-0.4941,-0.4923,-0.4887,-0.4887,-0.4901,-0.4975,-0.5001,-0.5039,-0.4946,-0.4947,-0.4947,0,-0.5452,-0.5416,-0.5401,-0.5338,-0.5327,-0.5316,-0.5273,-0.5251,-0.5203,-0.5175,-0.5145,-0.5099,-0.508,-0.5045,-0.5017,-0.5006,-0.4988,-0.4964,-0.4964,-0.4957,-0.4919,-0.497,-0.505,-0.5056,-0.4953,-0.4953,-0.4952,0,-0.5529,-0.5477,-0.5461,-0.544,-0.5366,-0.536,-0.5329,-0.528,-0.5258,-0.5221,-0.5206,-0.5167,-0.5146,-0.5117,-0.5062,-0.5042,-0.504,-0.5,-0.5015,-0.5017,-0.5017,-0.5017,-0.5095,-0.5008,-0.5008,-0.5008,-0.5007,0,-0.5583,-0.5576,-0.5494,-0.5484,-0.5475,-0.5413,-0.5405,-0.5368,-0.5325,-0.5306,-0.5249,-0.5233,-0.5162,-0.5138,-0.5095,-0.5078,-0.5069,-0.5046,-0.5034,-0.505,-0.5053,-0.5036,-0.5032,-0.5009,-0.5009,-0.5008,-0.5008,0,-0.5667,-0.5612,-0.559,-0.5522,-0.5505,-0.5501,-0.5443,-0.5431,-0.5389,-0.5367,-0.5358,-0.5292,-0.5261,-0.5204,-0.5156,-0.5127,-0.5118,-0.5099,-0.5135,-0.5127,-0.5146,-0.5144,-0.5214,-0.522,-0.5131,-0.5132,-0.5132,0,-0.5704,-0.5697,-0.5629,-0.5613,-0.5584,-0.5559,-0.5537,-0.5475,-0.5455,-0.54,-0.5394,-0.5358,-0.5326,-0.5279,-0.5227,-0.519,-0.5168,-0.5196,-0.5162,-0.5179,-0.5168,-0.5168,-0.5167,-0.5203,-0.5204,-0.5205,-0.5206,0,-0.5777,-0.575,-0.572,-0.5681,-0.5656,-0.5622,-0.5586,-0.5576,-0.5506,-0.5486,-0.5453,-0.5428,-0.5379,-0.5344,-0.53,-0.5267,-0.5225,-0.5217,-0.5218,-0.5234,-0.5255,-0.5243,-0.5154,-0.5215,-0.5214,-0.5214,-0.5213,-0.5213,-0.5837,-0.5828,-0.5779,-0.5748,-0.5714,-0.5681,-0.5666,-0.5623,-0.5595,-0.555,-0.5516,-0.5486,-0.5438,-0.5374,-0.5344,-0.5319,-0.53,-0.5302,-0.5302,-0.5304,-0.531,-0.526,-0.5311,-0.5311,-0.5311,-0.531,-0.531,0,-0.5906,-0.5871,-0.5843,-0.5794,-0.5769,-0.5733,-0.569,-0.5672,-0.5646,-0.5605,-0.5575,-0.5537,-0.5503,-0.5449,-0.541,-0.5401,-0.538,-0.5392,-0.5392,-0.5385,-0.533,-0.5332,-0.541,-0.541,-0.541,-0.541,-0.541,-0.541,-0.5939,-0.5921,-0.5889,-0.5854,-0.5819,-0.5789,-0.5768,-0.5737,-0.5704,-0.5665,-0.5636,-0.5601,-0.5555,-0.5512,-0.5479,-0.5464,-0.5452,-0.547,-0.5449,-0.5398,-0.5389,-0.538,-0.5382,-0.5468,-0.5468,-0.5506,-0.5506,-0.5506]},{"header":{"parameterUnit":"m.s-1","parameterCategory":1,"la1":30.2991,"la2":30.254,"lo1":-89.0895,"lo2":-89.0444,"dy":0.0017,"dx":0.0017,"nx":28,"ny":28,"refTime":"2024-07-28T09:00:00:Z","depth":0,"parameterNumber":3,"parameterNumberName":"V-component_of_WINDS"},"data":[0,0,0,0,0,0,0,0,0,0,0,0,0,0,0,0,0,0,0,0,0,0,0,0,0,0,0,0,0,0,0,0,0,0,0,0,0,0,0,0,0,0,0,0,0,0,0,0,0,0,0,0,0,0,0,0,0,0,3.2367,3.2366,0,3.2319,3.2318,3.2318,3.2328,3.2329,3.2329,3.233,3.2275,3.2273,3.2271,0,0,0,0,0,0,0,0,0,0,0,0,0,3.2463,3.2461,3.2367,3.2366,3.2366,3.2319,3.2318,3.2318,3.2328,3.2329,3.233,3.2331,3.2276,3.2273,3.2271,0,0,0,0,0,0,0,0,0,0,0,0,0,3.2418,3.246,3.2367,3.2365,3.2365,3.2319,3.2318,3.2317,3.2327,3.2329,3.233,3.2331,3.2277,3.2274,3.227,3.2222,0,0,3.226,3.2258,0,0,0,0,0,0,0,0,3.2421,3.2415,3.2366,3.2365,3.2365,3.2331,3.2332,3.2285,3.2327,3.2341,3.233,3.2332,3.2292,3.2288,3.2276,3.2219,3.2217,3.2259,3.2257,3.2256,3.2255,0,0,0,0,0,0,0,3.2424,3.2417,3.2348,3.2365,3.2364,3.2365,3.236,3.2323,3.231,3.234,3.2341,3.2335,3.2292,3.2279,3.2274,3.2216,3.226,3.2256,3.2254,3.2253,3.2116,3.2115,0,0,0,0,0,0,3.2428,3.2419,3.2349,3.2346,3.2397,3.2362,3.2357,3.234,3.231,3.2307,3.2334,3.2336,3.2284,3.2278,3.2272,3.2213,3.2256,3.2253,3.2251,3.2118,3.2116,3.2114,0,0,0,0,0,0,3.243,3.2422,3.2351,3.2383,3.2374,3.2359,3.234,3.2338,3.2325,3.2306,3.2303,3.2323,3.2285,3.2277,3.2234,3.2211,3.2251,3.2248,3.212,3.2117,3.2115,3.2094,0,0,0,0,0,0,3.2433,3.2423,3.2405,3.2383,3.2372,3.2316,3.2339,3.2337,3.232,3.2322,3.2295,3.2291,3.2285,3.224,3.2231,3.2207,3.2245,3.2122,3.2119,3.2116,3.2096,3.2091,3.2086,0,0,0,0,0,3.2436,3.24,3.2404,3.2396,3.2351,3.2314,3.2308,3.2304,3.2318,3.2299,3.2287,3.2292,3.2215,3.2235,3.2226,3.22,3.2123,3.2119,3.2116,3.2099,3.2092,3.2086,0,0,0,0,0,0,3.2419,3.2397,3.2402,3.2357,3.2338,3.2316,3.2293,3.2297,3.2271,3.2274,3.2267,3.2261,3.2217,3.2205,3.2227,3.2151,3.2171,3.2165,3.2161,3.2155,3.215,3.2153,3.2242,0,0,0,0,0,3.241,3.2384,3.2366,3.2328,3.2319,3.2307,3.2291,3.229,3.2268,3.226,3.2244,3.2221,3.2192,3.2173,3.2145,3.2095,3.2088,3.2073,3.2068,3.2064,3.2058,3.203,3.2022,3.2103,3.2103,3.2103,0,0,3.2391,3.2376,3.236,3.2325,3.2309,3.2281,3.23,3.2269,3.2248,3.2254,3.2213,3.2201,3.2175,3.2129,3.2107,3.2116,3.2035,3.2059,3.2056,3.2053,3.2026,3.2018,3.2011,3.21,3.2101,3.2101,0,0,3.2341,3.2328,3.2295,3.228,3.2257,3.225,3.2242,3.222,3.2212,3.2172,3.2176,3.2149,3.2099,3.208,3.2064,3.2008,3.2012,3.1999,3.1972,3.1945,3.1938,3.1932,3.1911,3.1904,3.1994,3.1994,3.1994,0,3.232,3.2279,3.2277,3.2246,3.223,3.2237,3.2202,3.2187,3.2155,3.2143,3.2155,3.2092,3.2075,3.2024,3.201,3.1997,3.1987,3.2002,3.194,3.1934,3.1928,3.1908,3.19,3.1993,3.1993,3.1993,3.1993,0,3.2253,3.2225,3.2201,3.2172,3.2153,3.212,3.2112,3.2093,3.2093,3.2084,3.2041,3.2022,3.199,3.1977,3.1976,3.1925,3.1932,3.1942,3.1961,3.1919,3.19,3.1892,3.1991,3.1991,3.1992,3.1992,0,0,3.2191,3.2162,3.2153,3.214,3.2115,3.2092,3.2059,3.203,3.2013,3.1991,3.1961,3.1919,3.1928,3.191,3.1907,3.1883,3.1838,3.1895,3.1894,3.1884,3.1779,3.1772,3.1763,3.1841,3.184,3.1838,3.1781,0,3.2138,3.2082,3.208,3.2027,3.2,3.2006,3.1977,3.1958,3.1949,3.1923,3.1912,3.1882,3.1896,3.1885,3.1862,3.1849,3.1817,3.1853,3.1812,3.1811,3.1817,3.1753,3.1744,3.1691,3.1774,3.1773,3.1772,0,3.2069,3.2047,3.1993,3.1972,3.196,3.1935,3.1907,3.1883,3.1861,3.1855,3.1836,3.1836,3.18,3.1822,3.1772,3.1796,3.1779,3.177,3.1768,3.1763,3.1788,3.1745,3.1675,3.1666,3.176,3.1761,3.1762,0,3.2028,3.1984,3.1946,3.1934,3.1909,3.1891,3.1879,3.1859,3.1841,3.1816,3.1804,3.1775,3.1759,3.1735,3.1727,3.1744,3.1676,3.1698,3.1669,3.167,3.1654,3.1655,3.1579,3.1645,3.1645,3.1645,3.1646,0,3.1969,3.1935,3.1927,3.1903,3.1865,3.1862,3.1823,3.1813,3.1794,3.1767,3.177,3.1745,3.1736,3.1708,3.1701,3.166,3.1653,3.1646,3.1644,3.1645,3.1646,3.1633,3.1636,3.1643,3.1644,3.1644,3.1644,0,3.1915,3.1909,3.1867,3.1847,3.1842,3.1814,3.1796,3.1773,3.1764,3.173,3.1722,3.1708,3.1675,3.1665,3.1625,3.1621,3.1572,3.1574,3.158,3.1579,3.1551,3.1554,3.1463,3.1451,3.1526,3.1526,3.1525,0,3.1878,3.1852,3.183,3.1813,3.1801,3.1774,3.1756,3.1752,3.1733,3.1705,3.1684,3.1653,3.1627,3.1574,3.156,3.1529,3.153,3.15,3.1525,3.1526,3.1528,3.1529,3.1526,3.1495,3.1494,3.1494,3.1493,0,3.1811,3.1809,3.1785,3.1759,3.1738,3.1717,3.1696,3.1682,3.1674,3.1652,3.162,3.16,3.1561,3.1528,3.1497,3.1483,3.1486,3.1486,3.1477,3.1477,3.1481,3.1478,3.1566,3.1487,3.1488,3.1488,3.1489,3.1489,3.1764,3.1741,3.1722,3.1694,3.1679,3.166,3.1636,3.1626,3.1599,3.1568,3.1566,3.1531,3.1508,3.1467,3.1452,3.1423,3.1431,3.1419,3.1416,3.1413,3.141,3.1487,3.1417,3.1417,3.1418,3.1418,3.1418,0,3.1696,3.1685,3.1659,3.1632,3.1609,3.1616,3.1594,3.1574,3.1544,3.1524,3.1499,3.1461,3.143,3.1413,3.1381,3.1361,3.1362,3.1353,3.1354,3.135,3.1405,3.1415,3.1353,3.1353,3.1353,3.1353,3.1353,3.1353,3.1659,3.1621,3.1617,3.157,3.1558,3.1525,3.1512,3.1493,3.1477,3.1436,3.1411,3.1401,3.1381,3.1348,3.1319,3.1315,3.1302,3.1293,3.1289,3.134,3.1347,3.1353,3.1362,3.129,3.129,3.1237,3.1236,3.1236]}]]